Date String (YYYY-MM-DD hh:mm:ss) UTC,Instrument flags,Ambient pressure (hPa),Sample flow (lpm),Bypass flow (lpm),Sample temperature (°C),Ambient temperature (°C),ASC tube jacket temperature (°C),LED temperature (°C),Box temperature (°C),Sample RH (%),Span deviation,Mass concentration (μg/m³),Mass concentration (μg/m³),Mass concentration (μg/m³)
DateTimeUTC,F1_M11,P_M11,Q1_M11,Q2_M11,T1_M11,T2_M11,T3_M11,T4_M11,T5_M11,U1_M11,ZSPAN_M11,X0_M11,X2_M11,X1_M11
2023-05-22 13:00:00,,0831.2,4.99,0.00,27.9,26.2,00.0,36.2,29.5,18.1,0003.5,0035.47,0026.25,0025.08
2023-05-22 13:01:00,,0831.2,4.99,0.00,27.9,26.2,00.0,36.2,29.5,18.1,0003.5,0035.47,0026.28,0025.11
2023-05-22 13:02:00,,0831.2,5.00,0.00,27.9,26.1,00.0,36.2,29.5,18.4,0003.6,0034.79,0026.29,0025.15
2023-05-22 13:03:00,,0831.2,5.00,0.00,27.9,26.1,00.0,36.2,29.5,18.6,0003.6,0034.74,0026.41,0025.25
2023-05-22 13:04:00,,0831.2,5.00,0.00,27.9,26.1,00.0,36.2,29.5,18.3,0003.5,0034.77,0026.48,0025.33
2023-05-22 13:05:00,,0831.2,5.00,0.00,27.9,26.2,00.0,36.2,29.5,18.5,0003.5,0034.95,0026.54,0025.38
2023-05-22 13:06:00,,0831.1,5.00,0.00,27.9,26.2,00.0,36.2,29.5,18.2,0003.5,0035.49,0026.70,0025.51
2023-05-22 13:07:00,,0831.1,5.00,0.00,27.9,26.2,00.0,36.2,29.5,18.1,0003.5,0036.06,0026.77,0025.61
2023-05-22 13:08:00,,0831.1,5.00,0.00,27.9,26.2,00.0,36.2,29.5,18.1,0003.5,0036.08,0026.90,0025.73
2023-05-22 13:09:00,,0831.2,5.00,0.00,27.9,26.2,00.0,36.2,29.5,18.1,0003.6,0035.87,0027.01,0025.88
2023-05-22 13:10:00,,0831.2,5.00,0.00,27.9,26.2,00.0,36.2,29.5,18.5,0003.5,0035.82,0027.05,0025.96
2023-05-22 13:11:00,,0831.2,5.00,0.00,27.9,26.1,00.0,36.2,29.5,18.6,0003.5,0035.93,0027.05,0025.95
2023-05-22 13:12:00,,0831.1,5.00,0.00,27.9,26.1,00.0,36.2,29.5,18.3,0003.6,0036.19,0027.07,0025.97
2023-05-22 13:13:00,,0831.1,5.00,0.00,27.9,26.1,00.0,36.2,29.5,18.3,0003.7,0036.45,0027.09,0025.99
2023-05-22 13:14:00,,0831.1,5.00,0.00,27.9,26.2,00.0,36.2,29.5,19.1,0003.7,0036.54,0027.10,0026.00
2023-05-22 13:15:00,,0831.2,5.00,0.00,27.9,26.2,00.0,36.2,29.6,18.6,0003.6,0036.82,0027.12,0026.00
2023-05-22 13:16:00,,0831.2,5.00,0.00,27.9,26.2,00.0,36.2,29.6,18.3,0003.6,0037.26,0027.18,0026.07
2023-05-22 13:17:00,,0831.2,5.01,0.00,27.9,26.2,00.0,36.2,29.5,18.7,0003.6,0037.50,0027.20,0026.11
2023-05-22 13:18:00,,0831.2,5.00,0.00,27.9,26.2,00.0,36.2,29.6,18.8,0003.4,0037.21,0027.29,0026.15
2023-05-22 13:19:00,,0831.2,5.00,0.00,27.9,26.2,00.0,36.2,29.6,18.3,0003.5,0037.64,0027.26,0026.15
2023-05-22 13:20:00,,0831.2,5.01,0.00,27.9,26.2,00.0,36.2,29.6,18.1,0003.5,0037.71,0027.20,0026.12
2023-05-22 13:21:00,,0831.2,5.00,0.00,27.9,26.2,00.0,36.2,29.6,18.5,0003.4,0039.22,0027.23,0026.15
2023-05-22 13:22:00,,0831.2,5.00,0.00,27.9,26.2,00.0,36.2,29.6,19.9,0003.4,0039.81,0027.24,0026.17
2023-05-22 13:23:00,,0831.2,5.00,0.00,27.9,26.2,00.0,36.3,29.6,19.9,0003.3,0039.78,0027.21,0026.13
2023-05-22 13:24:00,,0831.2,5.00,0.00,27.9,26.2,00.0,36.3,29.6,18.8,0003.1,0039.59,0027.26,0026.17
2023-05-22 13:25:00,,0831.2,4.99,0.00,27.9,26.2,00.0,36.3,29.6,18.3,0003.1,0039.70,0027.38,0026.29
2023-05-22 13:26:00,,0831.2,4.99,0.00,27.9,26.2,00.0,36.3,29.6,18.7,0003.2,0040.38,0027.54,0026.43
2023-05-22 13:27:00,,0831.2,5.00,0.00,27.9,26.2,00.0,36.3,29.6,19.5,0003.3,0040.80,0027.62,0026.45
2023-05-22 13:28:00,,0831.2,5.00,0.00,27.9,26.2,00.0,36.3,29.6,20.0,0003.4,0040.40,0027.67,0026.47
2023-05-22 13:29:00,,0831.2,5.00,0.00,27.9,26.2,00.0,36.3,29.6,19.1,0003.5,0040.44,0027.72,0026.54
2023-05-22 13:30:00,,0831.2,5.00,0.00,28.0,26.3,00.0,36.3,29.6,19.9,0003.5,0039.87,0027.72,0026.56
2023-05-22 13:31:00,,0831.2,5.00,0.00,27.9,26.3,00.0,36.3,29.6,19.7,0003.5,0039.96,0027.77,0026.59
2023-05-22 13:32:00,,0831.2,5.00,0.00,28.0,26.3,00.0,36.3,29.6,19.7,0003.6,0039.31,0027.87,0026.63
2023-05-22 13:33:00,,0831.2,5.00,0.00,28.0,26.3,00.0,36.3,29.6,20.3,0003.6,0038.63,0027.91,0026.68
2023-05-22 13:34:00,,0831.2,5.00,0.00,28.0,26.3,00.0,36.3,29.6,20.3,0003.6,0038.78,0028.03,0026.79
2023-05-22 13:35:00,,0831.2,5.00,0.00,28.0,26.3,00.0,36.3,29.6,19.8,0003.6,0039.45,0028.11,0026.87
2023-05-22 13:36:00,,0831.2,5.01,0.00,28.0,26.3,00.0,36.3,29.6,19.4,0003.7,0039.43,0028.12,0026.87
2023-05-22 13:37:00,,0831.2,5.00,0.00,28.0,26.3,00.0,36.3,29.6,19.5,0003.6,0038.94,0028.11,0026.87
2023-05-22 13:38:00,,0831.2,5.00,0.00,28.0,26.3,00.0,36.3,29.6,19.3,0003.5,0038.28,0028.18,0026.97
2023-05-22 13:39:00,,0831.2,5.00,0.00,28.0,26.3,00.0,36.3,29.6,18.9,0003.6,0038.32,0028.25,0027.05
2023-05-22 13:40:00,,0831.2,5.00,0.00,28.0,26.3,00.0,36.3,29.6,18.6,0003.5,0038.46,0028.33,0027.12
2023-05-22 13:41:00,,0831.2,5.00,0.00,28.0,26.3,00.0,36.3,29.6,19.2,0003.5,0038.98,0028.46,0027.23
2023-05-22 13:42:00,,0831.2,5.00,0.00,28.0,26.3,00.0,36.3,29.6,19.5,0003.5,0038.95,0028.60,0027.33
2023-05-22 13:43:00,,0831.2,5.01,0.00,28.0,26.3,00.0,36.3,29.6,19.2,0003.4,0038.48,0028.65,0027.42
2023-05-22 13:44:00,,0831.1,5.00,0.00,28.0,26.3,00.0,36.3,29.6,19.4,0003.2,0038.94,0028.87,0027.58
2023-05-22 13:45:00,,0831.1,4.99,0.00,28.0,26.3,00.0,36.3,29.6,19.5,0003.3,0039.74,0029.02,0027.69
2023-05-22 13:46:00,,0831.1,4.99,0.00,28.0,26.3,00.0,36.3,29.6,19.9,0003.3,0039.77,0029.15,0027.82
2023-05-22 13:47:00,,0831.1,5.01,0.00,28.0,26.3,00.0,36.3,29.7,20.0,0003.2,0039.88,0029.23,0027.91
2023-05-22 13:48:00,,0831.1,5.00,0.00,28.0,26.3,00.0,36.3,29.7,18.9,0003.3,0039.84,0029.27,0028.01
2023-05-22 13:49:00,,0831.1,5.00,0.00,28.0,26.3,00.0,36.3,29.7,19.5,0003.3,0039.91,0029.30,0028.06
2023-05-22 13:50:00,,0831.1,5.00,0.00,28.0,26.3,00.0,36.3,29.7,19.4,0003.2,0040.41,0029.37,0028.12
2023-05-22 13:51:00,,0831.1,5.00,0.00,28.0,26.3,00.0,36.3,29.7,19.6,0003.1,0040.82,0029.44,0028.16
2023-05-22 13:52:00,,0831.2,5.00,0.00,28.0,26.3,00.0,36.3,29.7,19.9,0003.1,0040.64,0029.46,0028.17
2023-05-22 13:53:00,,0831.1,5.01,0.00,28.0,26.3,00.0,36.3,29.7,20.1,0003.1,0040.72,0029.47,0028.20
2023-05-22 13:54:00,,0831.1,5.01,0.00,28.0,26.3,00.0,36.3,29.7,19.8,0003.2,0040.79,0029.47,0028.18
2023-05-22 13:55:00,,0831.1,5.01,0.00,28.0,26.3,00.0,36.3,29.7,20.0,0003.4,0040.68,0029.38,0028.14
2023-05-22 13:56:00,,0831.2,5.00,0.00,28.0,26.4,00.0,36.3,29.7,20.5,0003.4,0039.96,0029.38,0028.17
2023-05-22 13:57:00,,0831.1,5.00,0.00,28.0,26.4,00.0,36.3,29.7,20.6,0003.3,0039.55,0029.37,0028.14
2023-05-22 13:58:00,,0831.1,4.99,0.00,28.0,26.4,00.0,36.3,29.7,19.7,0003.3,0039.72,0029.37,0028.14
2023-05-22 13:59:00,,0831.1,5.00,0.00,28.0,26.4,00.0,36.3,29.7,20.0,0003.3,0039.94,0029.34,0028.10
